Location: Raleigh
(35.7720°N, 78.6390°W)
Time: 12:48:23
(UTC-04:00)

Amateur Radio Satellites - All Passes

Search period start: 29 July 2014 12:18
Search period end: 30 July 2014 12:18
Location: Raleigh, 35.7720°N, 78.6390°W

Satellite Date Start Highest point End Downlink Frequencies (MHz)
Time Altitude Azimuth
FUNcube-1 29 Jul 12:26:50 12:30:22 27° 289° (WNW) 12:33:56 145.950 - 145.970 MHz USB
SO-50 29 Jul 12:51:03 12:55:30 89° 119° (ESE) 13:00:02 436.795 FM
Oscar 16 29 Jul 12:56:48 13:00:18 19° 66° (ENE) 13:03:49 437.025 USB, Beacon 2401.1428
RS-15 29 Jul 12:57:56 13:08:16 44° 109° (ESE) 13:18:19 29.354 - 29.394 USB, Beacon 29.352 USB
ITAMSAT 1 29 Jul 13:19:37 13:22:10 14° 63° (ENE) 13:24:42 435.822 SSB
KITSAT 1 29 Jul 13:24:50 13:25:35 10° 29° (NNE) 13:26:20 435.175 FM
Uribyol 2 29 Jul 13:37:22 13:41:17 22° 67° (ENE) 13:45:12 436.500 FM
AO-27 29 Jul 13:37:25 13:41:17 21° 66° (ENE) 13:45:08 436.795 MHz FM
Gurwin Techsat 1B 29 Jul 14:03:21 14:06:14 15° 63° (ENE) 14:09:06 435.225 FM
Oscar 19 29 Jul 14:05:37 14:10:44 88° 76° (ENE) 14:15:52 437.125 CW, 437.150 USB
JAS-1B 29 Jul 14:07:29 14:15:27 38° 63° (ENE) 14:24:10 435.800 - 435.900 CW/SSB
AO-Echo 29 Jul 14:18:23 14:23:32 54° 73° (ENE) 14:28:43 ?
Oscar 16 29 Jul 14:34:24 14:39:17 45° 261° (W) 14:44:11 437.025 USB, Beacon 2401.1428
SO-50 29 Jul 14:35:30 14:36:43 11° 317° (NW) 14:37:57 436.795 FM
UOSAT-12 29 Jul 14:49:22 14:53:56 82° 300° (WNW) 14:58:37 437.025 FM, 437.400 FM
ITAMSAT 1 29 Jul 14:55:52 15:01:03 67° 258° (WSW) 15:06:15 435.822 SSB
RS-15 29 Jul 15:09:46 15:20:25 49° 308° (NW) 15:30:55 29.354 - 29.394 USB, Beacon 29.352 USB
AO-27 29 Jul 15:15:34 15:20:28 41° 261° (W) 15:25:24 436.795 MHz FM
Uribyol 2 29 Jul 15:15:38 15:20:28 39° 261° (W) 15:25:20 436.500 FM
TMSAT-1 29 Jul 15:15:45 15:20:53 54° 73° (ENE) 15:26:03 436.925 FM
KITSAT 1 29 Jul 15:15:56 15:23:32 42° 54° (NE) 15:31:03 435.175 FM
Gurwin Techsat 1B 29 Jul 15:40:22 15:45:37 63° 259° (W) 15:50:54 435.225 FM
AO-7 29 Jul 15:42:45 15:50:07 36° 62° (ENE) 15:57:29 29.400 - 29.500 MHz
JAS-1B 29 Jul 15:57:06 16:05:28 52° 262° (W) 16:14:56 435.800 - 435.900 CW/SSB
AO-Echo 29 Jul 15:59:21 16:02:33 16° 268° (W) 16:05:48 ?
Uosat F 29 Jul 16:16:17 16:21:04 45° 72° (ENE) 16:25:51 435.120 FM
UOSAT-12 29 Jul 16:33:54 16:34:50 11° 318° (NW) 16:35:47 437.025 FM, 437.400 FM
Saudisat 1A 29 Jul 16:34:24 16:38:28 35° 55° (NE) 16:42:30 436.775 MHz
TMSAT-1 29 Jul 16:57:54 17:01:05 16° 267° (W) 17:04:17 436.925 FM
KITSAT 1 29 Jul 17:11:27 17:18:49 41° 252° (WSW) 17:26:09 435.175 FM
OPAL 29 Jul 17:12:25 17:17:28 62° 103° (ESE) 17:22:33 ?
JAS-2 29 Jul 17:12:34 17:17:35 19° 62° (ENE) 17:22:25 435.800 - 435.900 CW/SSB, 435.910 FM
RS-15 29 Jul 17:30:18 17:36:24 16° 338° (NNW) 17:42:31 29.354 - 29.394 USB, Beacon 29.352 USB
AO-7 29 Jul 17:34:40 17:42:37 47° 259° (W) 17:50:37 29.400 - 29.500 MHz
Uosat F 29 Jul 17:56:40 18:00:01 18° 266° (W) 18:03:23 435.120 FM
Saudisat 1A 29 Jul 18:14:37 18:17:47 20° 250° (WSW) 18:20:56 436.775 MHz
Hamsat 29 Jul 18:17:50 18:21:55 57° 75° (ENE) 18:26:02 145.90 MHz
OPAL 29 Jul 18:53:05 18:55:49 15° 298° (WNW) 18:58:33 ?
JAS-2 29 Jul 18:53:58 19:01:50 83° 257° (WSW) 19:09:16 435.800 - 435.900 CW/SSB, 435.910 FM
STRAND 1 29 Jul 19:36:47 19:41:39 44° 99° (E) 19:46:29 ?
HO-68 29 Jul 19:39:21 19:42:04 13° 55° (NE) 19:44:47 435.675 MHz FM
RS-15 29 Jul 19:50:10 19:55:38 15° 17° (NNE) 20:01:09 29.354 - 29.394 USB, Beacon 29.352 USB
SO-67 29 Jul 19:52:46 19:56:12 65° 260° (W) 19:59:39 435.3500 MHz FM
UKube-1 29 Jul 20:38:07 20:40:10 13° 65° (ENE) 20:42:13 145.840 MHz, 145.915 MHz
JAS-2 29 Jul 20:44:06 20:47:29 13° 271° (W) 20:50:50 435.800 - 435.900 CW/SSB, 435.910 FM
MaSat-1 29 Jul 20:50:14 20:53:34 28° 104° (ESE) 20:57:23 437.345 MHz
STRAND 1 29 Jul 21:16:55 21:20:29 19° 294° (WNW) 21:24:01 ?
Oscar 11 29 Jul 21:21:21 21:24:22 19° 68° (ENE) 21:27:24 145.825 FM, Beacon 2401.500 USB
HO-68 29 Jul 21:21:25 21:28:33 75° 72° (ENE) 21:35:43 435.675 MHz FM
SO-50 29 Jul 21:25:26 21:29:52 37° 55° (NE) 21:34:19 436.795 FM
FUNcube-1 29 Jul 21:46:17 21:48:07 13° 66° (ENE) 21:49:56 145.950 - 145.970 MHz USB
RS-15 29 Jul 22:01:52 22:12:12 42° 49° (NE) 22:22:49 29.354 - 29.394 USB, Beacon 29.352 USB
ISS 29 Jul 22:06:30 22:07:18 11° 126° (SE) 22:08:05 145.800 FM
UKube-1 29 Jul 22:11:41 22:15:54 49° 260° (W) 22:20:10 145.840 MHz, 145.915 MHz
MaSat-1 29 Jul 22:27:34 22:30:52 23° 305° (NW) 22:34:34 437.345 MHz
Oscar 11 29 Jul 22:56:29 23:00:19 31° 263° (W) 23:04:10 145.825 FM, Beacon 2401.500 USB
SO-50 29 Jul 23:06:29 23:10:12 23° 249° (WSW) 23:13:56 436.795 FM
HO-68 29 Jul 23:12:26 23:16:49 17° 268° (W) 23:21:14 435.675 MHz FM
FUNcube-1 29 Jul 23:19:53 23:24:06 49° 260° (W) 23:28:14 145.950 - 145.970 MHz USB
UOSAT-12 29 Jul 23:21:53 23:26:20 39° 55° (NE) 23:30:41 437.025 FM, 437.400 FM
ISS 29 Jul 23:40:18 23:43:35 61° 320° (NW) 23:46:55 145.800 FM
Sapphire 30 Jul 00:13:11 00:17:52 31° 108° (ESE) 00:22:35 437.095 MHz 1200 baud AX-25 AFSK
RS-15 30 Jul 00:14:08 00:24:46 55° 249° (WSW) 00:35:51 29.354 - 29.394 USB, Beacon 29.352 USB
PCSat 30 Jul 00:45:41 00:51:02 69° 114° (ESE) 00:56:25 145.825 MHz
UOSAT-12 30 Jul 01:02:44 01:06:11 20° 250° (WSW) 01:09:35 437.025 FM, 437.400 FM
ISS 30 Jul 01:19:52 01:20:53 11° 338° (NNW) 01:21:54 145.800 FM
Sapphire 30 Jul 01:56:25 02:01:12 32° 304° (NW) 02:06:01 437.095 MHz 1200 baud AX-25 AFSK
JAS-1B 30 Jul 02:02:34 02:04:08 11° 82° (E) 02:05:40 435.800 - 435.900 CW/SSB
AO-40 30 Jul 02:09:48 03:58:00 30° 217° (SW) 07:58:47 Beacon 2401.320
Oscar 19 30 Jul 02:20:21 02:25:12 39° 98° (E) 02:30:01 437.125 CW, 437.150 USB
AO-Echo 30 Jul 02:29:50 02:33:36 21° 94° (E) 02:37:15 ?
PCSat 30 Jul 02:31:35 02:34:58 17° 311° (NW) 02:38:21 145.825 MHz
Oscar 16 30 Jul 02:48:40 02:53:52 81° 103° (ESE) 02:59:02 437.025 USB, Beacon 2401.1428
ITAMSAT 1 30 Jul 03:11:46 03:16:52 56° 101° (E) 03:21:54 435.822 SSB
Uribyol 2 30 Jul 03:30:53 03:36:04 88° 284° (WNW) 03:41:14 436.500 FM
AO-27 30 Jul 03:31:12 03:36:25 89° 103° (ESE) 03:41:35 436.795 MHz FM
TMSAT-1 30 Jul 03:35:03 03:39:29 27° 96° (E) 03:43:54 436.925 FM
PANSAT 30 Jul 03:47:02 03:48:34 12° 160° (SSE) 03:50:06 not established
JAS-1B 30 Jul 03:47:16 03:56:28 71° 101° (ESE) 04:04:10 435.800 - 435.900 CW/SSB
AO-7 30 Jul 03:51:58 03:53:22 10° 89° (E) 03:54:46 29.400 - 29.500 MHz
Gurwin Techsat 1B 30 Jul 03:59:30 04:04:48 67° 102° (ESE) 04:10:03 435.225 FM
Oscar 19 30 Jul 04:00:21 04:04:15 22° 293° (WNW) 04:08:09 437.125 CW, 437.150 USB
AO-Echo 30 Jul 04:07:53 04:12:27 36° 290° (WNW) 04:16:53 ?
OPAL 30 Jul 04:24:45 04:29:41 81° 74° (ENE) 04:34:39 ?
Uosat F 30 Jul 04:28:03 04:31:19 17° 94° (E) 04:34:33 435.120 FM
Oscar 16 30 Jul 04:31:03 04:32:29 11° 298° (WNW) 04:33:56 437.025 USB, Beacon 2401.1428
ITAMSAT 1 30 Jul 04:52:48 04:55:51 16° 296° (WNW) 04:58:53 435.822 SSB
TMSAT-1 30 Jul 05:14:42 05:19:22 32° 291° (WNW) 05:24:00 436.925 FM
PANSAT 30 Jul 05:25:00 05:28:11 24° 172° (S) 05:31:21 not established
JAS-1B 30 Jul 05:38:52 05:45:55 26° 302° (WNW) 05:52:15 435.800 - 435.900 CW/SSB
AO-7 30 Jul 05:38:59 05:47:20 73° 105° (ESE) 05:55:35 29.400 - 29.500 MHz
KITSAT 1 30 Jul 05:40:57 05:48:22 42° 109° (ESE) 05:55:49 435.175 FM
Gurwin Techsat 1B 30 Jul 05:41:29 05:44:08 14° 297° (WNW) 05:46:47 435.225 FM
Uosat F 30 Jul 06:05:31 06:10:17 45° 288° (WNW) 06:15:02 435.120 FM
Hamsat 30 Jul 06:08:08 06:10:10 13° 92° (E) 06:12:12 145.90 MHz
JAS-2 30 Jul 06:11:13 06:13:18 12° 88° (E) 06:15:20 435.800 - 435.900 CW/SSB, 435.910 FM
ISS 30 Jul 06:11:27 06:14:40 42° 37° (NE) 06:17:52 145.800 FM
Saudisat 1A 30 Jul 06:39:20 06:42:20 18° 110° (ESE) 06:45:21 436.775 MHz
MaSat-1 30 Jul 06:47:34 06:52:37 44° 62° (ENE) 06:57:20 437.345 MHz
STRAND 1 30 Jul 06:49:50 06:54:46 48° 72° (ENE) 06:59:41 ?
PANSAT 30 Jul 07:04:39 07:07:55 26° 185° (S) 07:11:11 not established
SO-67 30 Jul 07:22:14 07:22:37 10° 92° (E) 07:23:00 435.3500 MHz FM
AO-7 30 Jul 07:33:09 07:39:17 24° 303° (WNW) 07:45:25 29.400 - 29.500 MHz
KITSAT 1 30 Jul 07:36:09 07:43:42 41° 307° (NW) 07:51:17 435.175 FM
Hamsat 30 Jul 07:42:12 07:46:19 45° 286° (WNW) 07:50:27 145.90 MHz
ISS 30 Jul 07:48:59 07:51:07 16° 232° (SW) 07:53:14 145.800 FM
JAS-2 30 Jul 07:53:21 07:59:07 67° 286° (WNW) 08:04:21 435.800 - 435.900 CW/SSB, 435.910 FM
Saudisat 1A 30 Jul 08:17:28 08:21:36 39° 305° (NW) 08:25:46 436.775 MHz
MaSat-1 30 Jul 08:25:50 08:29:32 20° 259° (WSW) 08:33:03 437.345 MHz
STRAND 1 30 Jul 08:30:51 08:34:09 17° 266° (W) 08:37:29 ?
PANSAT 30 Jul 08:45:18 08:47:35 15° 197° (SSW) 08:49:52 not established
SO-67 30 Jul 08:52:38 08:55:49 34° 286° (WNW) 08:58:59 435.3500 MHz FM
HO-68 30 Jul 08:54:45 08:58:35 15° 92° (E) 09:02:23 435.675 MHz FM
Sapphire 30 Jul 09:04:39 09:07:54 16° 48° (NE) 09:11:08 437.095 MHz 1200 baud AX-25 AFSK
PCSat 30 Jul 09:36:53 09:41:39 30° 55° (NE) 09:46:23 145.825 MHz
UKube-1 30 Jul 10:03:01 10:06:58 33° 98° (E) 10:10:52 145.840 MHz, 145.915 MHz
HO-68 30 Jul 10:39:47 10:46:57 82° 287° (WNW) 10:54:04 435.675 MHz FM
Oscar 11 30 Jul 10:46:25 10:50:41 55° 100° (E) 10:54:56 145.825 FM, Beacon 2401.500 USB
Sapphire 30 Jul 10:46:28 10:51:53 73° 246° (WSW) 10:57:15 437.095 MHz 1200 baud AX-25 AFSK
FUNcube-1 30 Jul 11:11:52 11:15:45 36° 98° (E) 11:19:40 145.950 - 145.970 MHz USB
PCSat 30 Jul 11:20:13 11:25:00 33° 251° (WSW) 11:29:47 145.825 MHz
SO-50 30 Jul 11:38:45 11:42:06 21° 110° (ESE) 11:45:31 436.795 FM
UKube-1 30 Jul 11:39:52 11:42:54 19° 293° (WNW) 11:45:55 145.840 MHz, 145.915 MHz
